Time,TemperatureF,DewpointF,PressureIn,WindDirection,WindDirectionDegrees,WindSpeedMPH,WindSpeedGustMPH,Humidity,HourlyPrecipIn,Conditions,Clouds,dailyrainin,SoftwareType,DateUTC
2013-04-11 00:00:00,34.6,25.5,30.12,NE,42,0.0,0.0,69,0.00,,---,0.30,VWS V14.01,2013-04-11 04:00:00,
2013-04-11 00:05:00,34.6,25.5,30.12,NE,42,0.0,0.0,69,0.00,,---,0.00,VWS V14.01,2013-04-11 04:05:00,
2013-04-11 00:10:00,34.6,24.8,30.11,NE,51,0.0,0.0,67,0.00,,---,0.00,VWS V14.01,2013-04-11 04:10:00,
2013-04-11 00:15:00,34.6,25.1,30.10,ENE,68,0.0,0.0,68,0.00,,---,0.00,VWS V14.01,2013-04-11 04:15:00,
2013-04-11 00:20:00,34.6,24.8,30.09,ENE,77,0.0,0.0,67,0.00,,---,0.00,VWS V14.01,2013-04-11 04:20:00,
2013-04-11 00:25:00,34.6,24.1,30.09,East,84,0.0,0.0,65,0.00,,---,0.00,VWS V14.01,2013-04-11 04:25:00,
2013-04-11 00:30:00,34.4,24.2,30.10,ENE,75,0.0,0.0,66,0.00,,---,0.00,VWS V14.01,2013-04-11 04:30:00,
2013-04-11 00:35:00,34.4,23.5,30.10,ENE,67,0.0,0.0,64,0.00,,---,0.00,VWS V14.01,2013-04-11 04:35:00,
2013-04-11 00:40:00,34.4,23.9,30.11,ENE,67,0.0,0.0,65,0.00,,---,0.00,VWS V14.01,2013-04-11 04:40:00,
2013-04-11 00:45:00,34.3,23.8,30.11,ENE,67,0.0,0.0,65,0.00,,---,0.00,VWS V14.01,2013-04-11 04:45:00,
2013-04-11 00:50:00,34.3,24.1,30.11,ENE,75,0.0,0.0,66,0.00,,---,0.00,VWS V14.01,2013-04-11 04:50:00,
2013-04-11 00:55:00,34.1,24.3,30.11,ENE,75,0.0,0.0,67,0.00,,---,0.00,VWS V14.01,2013-04-11 04:55:00,
2013-04-11 01:00:00,34.0,24.2,30.11,ENE,75,0.0,0.0,67,0.00,,---,0.00,VWS V14.01,2013-04-11 05:00:00,
2013-04-11 01:05:00,33.8,23.3,30.12,ENE,74,0.0,0.0,65,0.00,,---,0.00,VWS V14.01,2013-04-11 05:05:00,
2013-04-11 01:10:00,33.8,24.4,30.11,ENE,74,0.0,0.0,68,0.00,,---,0.00,VWS V14.01,2013-04-11 05:10:00,
2013-04-11 01:15:00,33.8,23.7,30.11,ENE,74,0.0,0.0,66,0.00,,---,0.00,VWS V14.01,2013-04-11 05:15:00,
2013-04-11 01:20:00,33.8,23.3,30.11,East,79,0.0,0.0,65,0.00,,---,0.00,VWS V14.01,2013-04-11 05:20:00,
2013-04-11 01:25:00,33.8,24.0,30.11,East,79,0.0,0.0,67,0.00,,---,0.00,VWS V14.01,2013-04-11 05:25:00,
2013-04-11 01:30:00,33.7,23.9,30.11,ESE,112,0.0,0.0,67,0.00,,---,0.00,VWS V14.01,2013-04-11 05:30:00,
2013-04-11 01:35:00,33.7,23.9,30.11,ENE,69,0.0,0.0,67,0.00,,---,0.00,VWS V14.01,2013-04-11 05:35:00,
2013-04-11 01:40:00,33.7,23.9,30.11,ENE,67,0.0,0.0,67,0.00,,---,0.00,VWS V14.01,2013-04-11 05:40:00,
2013-04-11 01:45:00,33.5,24.1,30.11,East,81,0.0,0.0,68,0.00,,---,0.00,VWS V14.01,2013-04-11 05:45:00,
2013-04-11 01:50:00,33.5,24.1,30.11,East,80,0.0,0.0,68,0.00,,---,0.00,VWS V14.01,2013-04-11 05:50:00,
2013-04-11 01:55:00,33.5,23.7,30.10,ENE,69,0.0,0.0,67,0.00,,---,0.00,VWS V14.01,2013-04-11 05:55:00,
2013-04-11 02:00:00,33.5,24.4,30.10,ENE,69,0.0,0.0,69,0.00,,---,0.00,VWS V14.01,2013-04-11 06:00:00,
2013-04-11 02:05:00,33.4,23.6,30.09,ENE,75,0.0,0.0,67,0.00,,---,0.00,VWS V14.01,2013-04-11 06:05:00,
2013-04-11 02:10:00,33.4,24.3,30.08,ENE,70,0.0,0.0,69,0.00,,---,0.00,VWS V14.01,2013-04-11 06:10:00,
2013-04-11 02:15:00,33.4,24.0,30.07,East,88,0.0,0.0,68,0.00,,---,0.00,VWS V14.01,2013-04-11 06:15:00,
2013-04-11 02:20:00,33.5,23.7,30.07,ENE,58,0.0,0.0,67,0.00,,---,0.00,VWS V14.01,2013-04-11 06:20:00,
2013-04-11 02:25:00,33.8,23.7,30.07,East,81,0.0,0.0,66,0.00,,---,0.00,VWS V14.01,2013-04-11 06:25:00,
2013-04-11 02:30:00,34.0,24.2,30.06,ENE,78,0.0,0.0,67,0.00,,---,0.00,VWS V14.01,2013-04-11 06:30:00,
2013-04-11 02:35:00,34.3,23.8,30.06,East,101,0.0,0.0,65,0.00,,---,0.00,VWS V14.01,2013-04-11 06:35:00,
2013-04-11 02:40:00,34.6,24.1,30.05,ENE,76,0.0,0.0,65,0.00,,---,0.00,VWS V14.01,2013-04-11 06:40:00,
2013-04-11 02:46:00,34.7,23.4,30.05,ENE,76,0.0,0.0,63,0.00,,---,0.00,VWS V14.01,2013-04-11 06:46:00,
2013-04-11 02:50:00,34.9,24.0,30.05,ESE,123,0.0,0.0,64,0.00,,---,0.00,VWS V14.01,2013-04-11 06:50:00,
2013-04-11 02:51:00,34.9,24.0,30.06,East,82,0.0,0.0,64,0.00,,---,0.00,VWS V14.01,2013-04-11 06:51:00,
2013-04-11 02:56:00,35.0,23.7,30.06,ENE,67,0.0,0.0,63,0.00,,---,0.00,VWS V14.01,2013-04-11 06:56:00,
2013-04-11 03:00:00,35.2,23.5,30.06,East,96,0.0,0.0,62,0.00,,---,0.00,VWS V14.01,2013-04-11 07:00:00,
2013-04-11 03:01:00,35.2,23.5,30.06,ENE,75,0.0,0.0,62,0.00,,---,0.00,VWS V14.01,2013-04-11 07:01:00,
2013-04-11 03:06:00,35.3,23.2,30.06,ENE,76,0.0,0.0,61,0.00,,---,0.00,VWS V14.01,2013-04-11 07:06:00,
2013-04-11 03:10:00,35.5,23.4,30.05,East,79,0.0,0.0,61,0.00,,---,0.00,VWS V14.01,2013-04-11 07:10:00,
2013-04-11 03:11:00,35.5,23.0,30.05,ESE,123,0.0,0.0,60,0.00,,---,0.00,VWS V14.01,2013-04-11 07:11:00,
2013-04-11 03:16:00,35.6,23.5,30.05,ENE,68,0.0,0.0,61,0.00,,---,0.00,VWS V14.01,2013-04-11 07:16:00,
2013-04-11 03:20:00,35.6,22.7,30.05,ENE,78,0.0,0.0,59,0.00,,---,0.00,VWS V14.01,2013-04-11 07:20:00,
2013-04-11 03:21:00,35.6,22.7,30.05,East,82,0.0,0.0,59,0.00,,---,0.00,VWS V14.01,2013-04-11 07:21:00,
2013-04-11 03:26:00,35.6,23.1,30.05,ESE,112,0.0,0.0,60,0.00,,---,0.00,VWS V14.01,2013-04-11 07:26:00,
2013-04-11 03:30:00,35.6,23.1,30.05,East,87,0.0,0.0,60,0.00,,---,0.00,VWS V14.01,2013-04-11 07:30:00,
2013-04-11 03:31:00,35.6,23.1,30.06,SE,142,0.0,0.0,60,0.00,,---,0.00,VWS V14.01,2013-04-11 07:31:00,
2013-04-11 03:36:00,35.6,22.7,30.06,East,85,0.0,0.0,59,0.00,,---,0.00,VWS V14.01,2013-04-11 07:36:00,
2013-04-11 03:40:00,35.6,22.7,30.06,SE,130,0.0,0.0,59,0.00,,---,0.00,VWS V14.01,2013-04-11 07:40:00,
2013-04-11 03:41:00,35.6,22.7,30.06,East,97,0.0,0.0,59,0.00,,---,0.00,VWS V14.01,2013-04-11 07:41:00,
2013-04-11 03:46:00,35.6,22.3,30.07,East,80,0.0,0.0,58,0.00,,---,0.00,VWS V14.01,2013-04-11 07:46:00,
2013-04-11 03:50:00,35.6,22.7,30.07,North,355,0.0,0.0,59,0.00,,---,0.00,VWS V14.01,2013-04-11 07:50:00,
2013-04-11 03:51:00,35.5,22.6,30.07,ENE,75,0.0,0.0,59,0.00,,---,0.00,VWS V14.01,2013-04-11 07:51:00,
2013-04-11 03:56:00,35.5,23.0,30.07,SE,134,0.0,0.0,60,0.00,,---,0.00,VWS V14.01,2013-04-11 07:56:00,
2013-04-11 04:00:00,35.5,22.6,30.07,SSE,151,0.0,0.0,59,0.00,,---,0.00,VWS V14.01,2013-04-11 08:00:00,
2013-04-11 04:01:00,35.5,22.6,30.07,SE,131,0.0,0.0,59,0.00,,---,0.00,VWS V14.01,2013-04-11 08:01:00,
2013-04-11 04:06:00,35.5,22.6,30.07,ESE,106,0.0,0.0,59,0.00,,---,0.00,VWS V14.01,2013-04-11 08:06:00,
2013-04-11 04:10:00,35.3,22.4,30.07,ESE,110,0.0,0.0,59,0.00,,---,0.00,VWS V14.01,2013-04-11 08:10:00,
2013-04-11 04:12:00,35.3,22.8,30.07,ENE,78,0.0,0.0,60,0.00,,---,0.00,VWS V14.01,2013-04-11 08:12:00,
2013-04-11 04:17:00,35.3,22.8,30.07,ESE,113,0.0,0.0,60,0.00,,---,0.00,VWS V14.01,2013-04-11 08:17:00,
2013-04-11 04:20:00,35.2,22.7,30.07,ENE,74,0.0,0.0,60,0.00,,---,0.00,VWS V14.01,2013-04-11 08:20:00,
2013-04-11 04:22:00,35.2,22.7,30.07,South,178,0.0,0.0,60,0.00,,---,0.00,VWS V14.01,2013-04-11 08:22:00,
2013-04-11 04:27:00,35.0,22.5,30.08,SSE,148,0.0,0.0,60,0.00,,---,0.00,VWS V14.01,2013-04-11 08:27:00,
2013-04-11 04:30:00,35.0,22.9,30.08,East,80,0.0,0.0,61,0.00,,---,0.00,VWS V14.01,2013-04-11 08:30:00,
2013-04-11 04:32:00,35.0,22.5,30.08,East,84,0.0,0.0,60,0.00,,---,0.00,VWS V14.01,2013-04-11 08:32:00,
2013-04-11 04:37:00,35.0,22.9,30.08,East,84,0.0,0.0,61,0.00,,---,0.00,VWS V14.01,2013-04-11 08:37:00,
2013-04-11 04:40:00,34.9,23.2,30.09,East,98,0.0,0.0,62,0.00,,---,0.00,VWS V14.01,2013-04-11 08:40:00,
2013-04-11 04:42:00,34.9,23.2,30.09,East,99,0.0,0.0,62,0.00,,---,0.00,VWS V14.01,2013-04-11 08:42:00,
2013-04-11 04:47:00,34.7,23.4,30.09,ENE,65,0.0,0.0,63,0.00,,---,0.00,VWS V14.01,2013-04-11 08:47:00,
2013-04-11 04:50:00,34.7,23.4,30.09,East,85,0.0,0.0,63,0.00,,---,0.00,VWS V14.01,2013-04-11 08:50:00,
2013-04-11 04:52:00,34.7,23.0,30.09,East,90,0.0,0.0,62,0.00,,---,0.00,VWS V14.01,2013-04-11 08:52:00,
2013-04-11 04:57:00,34.6,23.3,30.10,East,94,0.0,0.0,63,0.00,,---,0.00,VWS V14.01,2013-04-11 08:57:00,
2013-04-11 05:00:00,34.6,23.3,30.10,East,96,0.0,0.0,63,0.00,,---,0.00,VWS V14.01,2013-04-11 09:00:00,
2013-04-11 05:02:00,34.6,24.1,30.10,ENE,65,0.0,0.0,65,0.00,,---,0.00,VWS V14.01,2013-04-11 09:02:00,
2013-04-11 05:07:00,34.4,23.5,30.10,ENE,75,0.0,0.0,64,0.00,,---,0.00,VWS V14.01,2013-04-11 09:07:00,
2013-04-11 05:10:00,34.4,23.5,30.11,East,96,0.0,0.0,64,0.00,,---,0.00,VWS V14.01,2013-04-11 09:10:00,
2013-04-11 05:12:00,34.3,23.0,30.11,East,86,0.0,0.0,63,0.00,,---,0.00,VWS V14.01,2013-04-11 09:12:00,
2013-04-11 05:17:00,34.3,23.8,30.11,ENE,78,0.0,0.0,65,0.00,,---,0.00,VWS V14.01,2013-04-11 09:17:00,
2013-04-11 05:20:00,34.3,23.0,30.11,NE,45,0.0,0.0,63,0.00,,---,0.00,VWS V14.01,2013-04-11 09:20:00,
2013-04-11 05:22:00,34.3,23.0,30.11,ESE,105,0.0,0.0,63,0.00,,---,0.00,VWS V14.01,2013-04-11 09:22:00,
2013-04-11 05:27:00,34.1,23.2,30.10,East,96,0.0,0.0,64,0.00,,---,0.00,VWS V14.01,2013-04-11 09:27:00,
2013-04-11 05:30:00,34.1,23.2,30.10,ENE,72,0.0,0.0,64,0.00,,---,0.00,VWS V14.01,2013-04-11 09:30:00,
2013-04-11 05:32:00,34.1,23.2,30.10,SE,124,0.0,0.0,64,0.00,,---,0.00,VWS V14.01,2013-04-11 09:32:00,
2013-04-11 05:37:00,34.0,22.7,30.09,East,84,0.0,0.0,63,0.00,,---,0.00,VWS V14.01,2013-04-11 09:37:00,
2013-04-11 05:40:00,34.0,22.7,30.09,ESE,115,0.0,0.0,63,0.00,,---,0.00,VWS V14.01,2013-04-11 09:40:00,
2013-04-11 05:42:00,34.0,22.7,30.09,NE,42,0.0,0.0,63,0.00,,---,0.00,VWS V14.01,2013-04-11 09:42:00,
2013-04-11 05:47:00,34.0,23.1,30.09,East,101,0.0,0.0,64,0.00,,---,0.00,VWS V14.01,2013-04-11 09:47:00,
2013-04-11 05:50:00,33.8,22.9,30.09,East,79,0.0,0.0,64,0.00,,---,0.00,VWS V14.01,2013-04-11 09:50:00,
2013-04-11 05:52:00,33.8,22.9,30.09,ESE,113,0.0,0.0,64,0.00,,---,0.00,VWS V14.01,2013-04-11 09:52:00,
2013-04-11 05:57:00,33.8,22.5,30.09,East,101,0.0,0.0,63,0.00,,---,0.00,VWS V14.01,2013-04-11 09:57:00,
2013-04-11 06:00:00,33.7,22.8,30.09,East,90,0.0,0.0,64,0.00,,---,0.00,VWS V14.01,2013-04-11 10:00:00,
2013-04-11 06:02:00,33.7,22.8,30.08,ENE,78,0.0,0.0,64,0.00,,---,0.00,VWS V14.01,2013-04-11 10:02:00,
2013-04-11 06:07:00,33.7,23.2,30.08,East,83,0.0,0.0,65,0.00,,---,0.00,VWS V14.01,2013-04-11 10:07:00,
2013-04-11 06:10:00,33.5,23.0,30.07,East,81,0.0,0.0,65,0.00,,---,0.00,VWS V14.01,2013-04-11 10:10:00,
2013-04-11 06:12:00,33.5,23.0,30.07,SE,128,0.0,0.0,65,0.00,,---,0.00,VWS V14.01,2013-04-11 10:12:00,
2013-04-11 06:17:00,33.4,22.9,30.07,East,94,0.0,0.0,65,0.00,,---,0.00,VWS V14.01,2013-04-11 10:17:00,
2013-04-11 06:20:00,33.4,22.5,30.07,East,99,0.0,0.0,64,0.00,,---,0.00,VWS V14.01,2013-04-11 10:20:00,
2013-04-11 06:22:00,33.2,22.4,30.06,ESE,111,0.0,0.0,64,0.00,,---,0.00,VWS V14.01,2013-04-11 10:22:00,
2013-04-11 06:27:00,33.2,22.7,30.06,East,88,0.0,0.0,65,0.00,,---,0.00,VWS V14.01,2013-04-11 10:27:00,
2013-04-11 06:30:00,33.2,22.7,30.05,ENE,71,0.0,0.0,65,0.00,,---,0.00,VWS V14.01,2013-04-11 10:30:00,
2013-04-11 06:32:00,33.1,22.6,30.05,ESE,112,0.0,0.0,65,0.00,,---,0.00,VWS V14.01,2013-04-11 10:32:00,
2013-04-11 06:37:00,33.1,22.6,30.04,NE,46,0.0,0.0,65,0.00,,---,0.00,VWS V14.01,2013-04-11 10:37:00,
2013-04-11 06:40:00,32.9,22.4,30.04,East,82,0.0,0.0,65,0.00,,---,0.00,VWS V14.01,2013-04-11 10:40:00,
2013-04-11 06:42:00,32.9,22.8,30.03,SSE,163,0.0,0.0,66,0.00,,---,0.00,VWS V14.01,2013-04-11 10:42:00,
2013-04-11 06:47:00,32.8,22.7,30.04,East,99,0.0,0.0,66,0.00,,---,0.00,VWS V14.01,2013-04-11 10:47:00,
2013-04-11 06:50:00,32.8,23.1,30.04,ESE,122,0.0,0.0,67,0.00,,---,0.00,VWS V14.01,2013-04-11 10:50:00,
2013-04-11 06:53:00,32.8,22.7,30.04,ENE,75,0.0,0.0,66,0.00,,---,0.00,VWS V14.01,2013-04-11 10:53:00,
2013-04-11 06:58:00,32.7,22.2,30.04,ESE,119,0.0,0.0,65,0.00,,---,0.00,VWS V14.01,2013-04-11 10:58:00,
2013-04-11 07:00:00,32.7,22.6,30.04,ENE,71,0.0,0.0,66,0.00,,---,0.00,VWS V14.01,2013-04-11 11:00:00,
2013-04-11 07:03:00,32.7,22.6,30.04,East,79,0.0,0.0,66,0.00,,---,0.00,VWS V14.01,2013-04-11 11:03:00,
2013-04-11 07:08:00,32.7,22.2,30.04,ESE,104,0.0,0.0,65,0.00,,---,0.00,VWS V14.01,2013-04-11 11:08:00,
2013-04-11 07:10:00,32.7,22.6,30.03,NE,52,0.0,0.0,66,0.00,,---,0.00,VWS V14.01,2013-04-11 11:10:00,
2013-04-11 07:13:00,32.5,22.4,30.04,East,80,0.0,0.0,66,0.00,,---,0.00,VWS V14.01,2013-04-11 11:13:00,
2013-04-11 07:18:00,32.5,22.4,30.03,East,101,0.0,0.0,66,0.00,,---,0.00,VWS V14.01,2013-04-11 11:18:00,
2013-04-11 07:20:00,32.4,22.0,30.02,East,81,0.0,0.0,65,0.00,,---,0.00,VWS V14.01,2013-04-11 11:20:00,
2013-04-11 07:23:00,32.4,22.3,30.02,ESE,103,0.0,0.0,66,0.00,,---,0.00,VWS V14.01,2013-04-11 11:23:00,
2013-04-11 07:28:00,32.2,22.1,30.03,East,80,0.0,0.0,66,0.00,,---,0.00,VWS V14.01,2013-04-11 11:28:00,
2013-04-11 07:30:00,32.2,22.5,30.03,ENE,78,0.0,0.0,67,0.00,,---,0.00,VWS V14.01,2013-04-11 11:30:00,
2013-04-11 07:33:00,32.1,22.4,30.04,ENE,73,0.0,0.0,67,0.00,,---,0.00,VWS V14.01,2013-04-11 11:33:00,
2013-04-11 07:38:00,32.1,22.0,30.04,East,81,0.0,0.0,66,0.00,,---,0.00,VWS V14.01,2013-04-11 11:38:00,
2013-04-11 07:40:00,31.9,21.9,30.05,East,99,0.0,0.0,66,0.00,,---,0.00,VWS V14.01,2013-04-11 11:40:00,
2013-04-11 07:43:00,31.9,21.9,30.06,ENE,76,0.0,0.0,66,0.00,,---,0.00,VWS V14.01,2013-04-11 11:43:00,
2013-04-11 07:48:00,31.9,21.9,30.08,ESE,103,0.0,0.0,66,0.00,,---,0.00,VWS V14.01,2013-04-11 11:48:00,
2013-04-11 07:50:00,31.9,21.9,30.08,SSE,152,0.0,0.0,66,0.00,,---,0.00,VWS V14.01,2013-04-11 11:50:00,
2013-04-11 07:53:00,31.9,21.5,30.08,ESE,111,0.0,0.0,65,0.00,,---,0.00,VWS V14.01,2013-04-11 11:53:00,
2013-04-11 07:58:00,31.9,21.5,30.11,SSW,200,0.0,0.0,65,0.00,,---,0.00,VWS V14.01,2013-04-11 11:58:00,
2013-04-11 08:00:00,31.9,21.5,30.11,SE,132,0.0,0.0,65,0.00,,---,0.00,VWS V14.01,2013-04-11 12:00:00,
2013-04-11 08:03:00,32.1,21.7,30.11,ENE,72,0.0,0.0,65,0.00,,---,0.00,VWS V14.01,2013-04-11 12:03:00,
2013-04-11 08:08:00,32.1,22.0,30.11,ENE,70,0.0,0.0,66,0.00,,---,0.00,VWS V14.01,2013-04-11 12:08:00,
2013-04-11 08:10:00,32.1,21.7,30.11,East,85,0.0,0.0,65,0.00,,---,0.00,VWS V14.01,2013-04-11 12:10:00,
2013-04-11 08:13:00,32.1,21.7,30.13,East,96,0.0,0.0,65,0.00,,---,0.00,VWS V14.01,2013-04-11 12:13:00,
2013-04-11 08:18:00,32.2,21.8,30.12,ENE,70,0.0,0.0,65,0.00,,---,0.00,VWS V14.01,2013-04-11 12:18:00,
2013-04-11 08:20:00,32.2,21.8,30.11,ESE,123,0.0,0.0,65,0.00,,---,0.00,VWS V14.01,2013-04-11 12:20:00,
2013-04-11 08:23:00,32.2,21.8,30.11,East,97,0.0,0.0,65,0.00,,---,0.00,VWS V14.01,2013-04-11 12:23:00,
2013-04-11 08:28:00,32.2,21.8,30.11,SE,124,0.0,0.0,65,0.00,,---,0.00,VWS V14.01,2013-04-11 12:28:00,
2013-04-11 08:30:00,32.2,21.8,30.11,East,80,0.0,0.0,65,0.00,,---,0.00,VWS V14.01,2013-04-11 12:30:00,
2013-04-11 08:33:00,32.2,21.8,30.10,ENE,62,0.0,0.0,65,0.00,,---,0.00,VWS V14.01,2013-04-11 12:33:00,
2013-04-11 08:38:00,32.1,21.7,30.12,East,92,0.0,0.0,65,0.00,,---,0.00,VWS V14.01,2013-04-11 12:38:00,
2013-04-11 08:40:00,32.1,21.3,30.12,East,79,0.0,0.0,64,0.00,,---,0.00,VWS V14.01,2013-04-11 12:40:00,
2013-04-11 08:43:00,32.1,21.3,30.12,South,184,0.0,0.0,64,0.00,,---,0.00,VWS V14.01,2013-04-11 12:43:00,
2013-04-11 08:48:00,32.1,21.7,30.12,ESE,106,0.0,0.0,65,0.00,,---,0.00,VWS V14.01,2013-04-11 12:48:00,
2013-04-11 08:50:00,32.1,21.3,30.12,ENE,78,0.0,0.0,64,0.00,,---,0.00,VWS V14.01,2013-04-11 12:50:00,
2013-04-11 08:53:00,32.1,21.7,30.11,East,101,0.0,0.0,65,0.00,,---,0.00,VWS V14.01,2013-04-11 12:53:00,
2013-04-11 08:58:00,32.1,21.3,30.10,East,82,0.0,0.0,64,0.00,,---,0.00,VWS V14.01,2013-04-11 12:58:00,
2013-04-11 09:00:00,32.1,21.7,30.10,ENE,78,0.0,0.0,65,0.00,,---,0.00,VWS V14.01,2013-04-11 13:00:00,
2013-04-11 09:03:00,32.1,21.7,30.08,East,88,0.0,0.0,65,0.00,,---,0.00,VWS V14.01,2013-04-11 13:03:00,
2013-04-11 09:08:00,32.1,21.7,30.09,SE,135,0.0,0.0,65,0.00,,---,0.00,VWS V14.01,2013-04-11 13:08:00,
2013-04-11 09:10:00,32.1,21.7,30.10,SE,127,0.0,0.0,65,0.00,,---,0.00,VWS V14.01,2013-04-11 13:10:00,
2013-04-11 09:13:00,32.1,21.7,30.11,East,92,0.0,0.0,65,0.00,,---,0.00,VWS V14.01,2013-04-11 13:13:00,
2013-04-11 09:18:00,32.1,21.3,30.09,South,174,0.0,0.0,64,0.00,,---,0.00,VWS V14.01,2013-04-11 13:18:00,
2013-04-11 09:20:00,32.1,20.9,30.09,ENE,62,0.0,0.0,63,0.00,,---,0.00,VWS V14.01,2013-04-11 13:20:00,
2013-04-11 09:23:00,32.1,21.3,30.09,South,169,0.0,0.0,64,0.00,,---,0.00,VWS V14.01,2013-04-11 13:23:00,
2013-04-11 09:28:00,32.1,21.3,30.08,ESE,110,0.0,0.0,64,0.00,,---,0.00,VWS V14.01,2013-04-11 13:28:00,
2013-04-11 09:30:00,32.1,20.9,30.08,SSE,151,0.0,0.0,63,0.00,,---,0.00,VWS V14.01,2013-04-11 13:30:00,
2013-04-11 09:33:00,31.9,20.8,30.09,SSE,155,0.0,0.0,63,0.00,,---,0.00,VWS V14.01,2013-04-11 13:33:00,
2013-04-11 09:38:00,31.9,20.8,30.08,East,97,0.0,0.0,63,0.00,,---,0.00,VWS V14.01,2013-04-11 13:38:00,
2013-04-11 09:40:00,31.9,20.8,30.08,East,94,0.0,0.0,63,0.00,,---,0.00,VWS V14.01,2013-04-11 13:40:00,
2013-04-11 09:43:00,31.8,20.7,30.06,ESE,107,0.0,0.0,63,0.00,,---,0.00,VWS V14.01,2013-04-11 13:43:00,
2013-04-11 09:48:00,31.8,21.0,30.05,SE,140,0.0,0.0,64,0.00,,---,0.00,VWS V14.01,2013-04-11 13:48:00,
2013-04-11 09:50:00,31.8,21.0,30.06,ESE,117,0.0,0.0,64,0.00,,---,0.00,VWS V14.01,2013-04-11 13:50:00,
2013-04-11 09:53:00,31.6,20.8,30.06,ESE,102,0.0,0.0,64,0.00,,---,0.00,VWS V14.01,2013-04-11 13:53:00,
2013-04-11 09:58:00,31.6,21.2,30.05,ENE,75,0.0,0.0,65,0.00,,---,0.00,VWS V14.01,2013-04-11 13:58:00,
2013-04-11 10:00:00,31.6,20.5,30.05,SE,125,0.0,0.0,63,0.00,,---,0.00,VWS V14.01,2013-04-11 14:00:00,
2013-04-11 10:03:00,31.6,20.5,30.05,East,98,0.0,0.0,63,0.00,,---,0.00,VWS V14.01,2013-04-11 14:03:00,
2013-04-11 10:08:00,31.6,20.8,30.05,East,84,0.0,0.0,64,0.00,,---,0.00,VWS V14.01,2013-04-11 14:08:00,
2013-04-11 10:10:00,31.6,20.8,30.05,West,280,0.0,0.0,64,0.00,,---,0.00,VWS V14.01,2013-04-11 14:10:00,
2013-04-11 10:13:00,31.6,20.8,30.04,ENE,71,0.0,0.0,64,0.00,,---,0.00,VWS V14.01,2013-04-11 14:13:00,
2013-04-11 10:18:00,31.6,20.1,30.04,East,100,0.0,0.0,62,0.00,,---,0.00,VWS V14.01,2013-04-11 14:18:00,
2013-04-11 10:20:00,31.6,20.5,30.04,SSE,150,0.0,0.0,63,0.00,,---,0.00,VWS V14.01,2013-04-11 14:20:00,
2013-04-11 10:23:00,31.8,20.7,30.04,ENE,78,0.0,0.0,63,0.00,,---,0.00,VWS V14.01,2013-04-11 14:23:00,
2013-04-11 10:28:00,31.8,20.3,30.05,ENE,78,0.0,0.0,62,0.00,,---,0.00,VWS V14.01,2013-04-11 14:28:00,
2013-04-11 10:30:00,31.9,20.8,30.05,East,94,0.0,0.0,63,0.00,,---,0.00,VWS V14.01,2013-04-11 14:30:00,
2013-04-11 10:33:00,31.9,20.4,30.06,East,96,0.0,0.0,62,0.00,,---,0.00,VWS V14.01,2013-04-11 14:33:00,
2013-04-11 10:38:00,31.9,20.8,30.05,SE,126,0.0,0.0,63,0.00,,---,0.00,VWS V14.01,2013-04-11 14:38:00,
2013-04-11 10:40:00,32.1,20.9,30.05,East,94,0.0,0.0,63,0.00,,---,0.00,VWS V14.01,2013-04-11 14:40:00,
2013-04-11 10:43:00,32.2,20.7,30.06,SSE,165,0.0,0.0,62,0.00,,---,0.00,VWS V14.01,2013-04-11 14:43:00,
2013-04-11 10:49:00,32.5,20.9,30.06,ESE,118,0.0,0.0,62,0.00,,---,0.00,VWS V14.01,2013-04-11 14:49:00,
2013-04-11 10:50:00,32.7,21.1,30.06,ESE,107,0.0,0.0,62,0.00,,---,0.00,VWS V14.01,2013-04-11 14:50:00,
2013-04-11 10:54:00,32.7,21.1,30.05,SE,143,0.0,0.0,62,0.00,,---,0.00,VWS V14.01,2013-04-11 14:54:00,
2013-04-11 10:59:00,32.7,21.1,30.06,SSE,161,0.0,0.0,62,0.00,,---,0.00,VWS V14.01,2013-04-11 14:59:00,
2013-04-11 11:00:00,32.7,20.8,30.06,East,96,0.0,0.0,61,0.00,,---,0.00,VWS V14.01,2013-04-11 15:00:00,
2013-04-11 11:04:00,32.8,22.0,30.05,ENE,69,0.0,0.0,64,0.00,,---,0.00,VWS V14.01,2013-04-11 15:04:00,
2013-04-11 11:09:00,33.1,22.3,30.05,East,89,0.0,0.0,64,0.00,,---,0.00,VWS V14.01,2013-04-11 15:09:00,
2013-04-11 11:10:00,33.1,21.9,30.05,SSE,159,0.0,0.0,63,0.00,,---,0.00,VWS V14.01,2013-04-11 15:10:00,
2013-04-11 11:14:00,33.2,22.0,30.05,East,88,0.0,0.0,63,0.00,,---,0.00,VWS V14.01,2013-04-11 15:14:00,
2013-04-11 11:19:00,33.1,20.7,30.06,ESE,112,0.0,0.0,60,0.00,,---,0.00,VWS V14.01,2013-04-11 15:19:00,
2013-04-11 11:20:00,33.1,21.1,30.05,East,80,0.0,0.0,61,0.00,,---,0.00,VWS V14.01,2013-04-11 15:20:00,
2013-04-11 11:24:00,33.2,20.8,30.05,ESE,122,0.0,0.0,60,0.00,,---,0.00,VWS V14.01,2013-04-11 15:24:00,
2013-04-11 11:29:00,33.2,20.8,30.05,ENE,75,0.0,0.0,60,0.00,,---,0.00,VWS V14.01,2013-04-11 15:29:00,
2013-04-11 11:30:00,33.2,21.2,30.05,SE,128,0.0,0.0,61,0.00,,---,0.00,VWS V14.01,2013-04-11 15:30:00,
2013-04-11 11:34:00,33.2,20.4,30.05,South,184,0.0,0.0,59,0.00,,---,0.00,VWS V14.01,2013-04-11 15:34:00,
2013-04-11 11:39:00,33.4,20.2,30.04,East,91,0.0,0.0,58,0.00,,---,0.00,VWS V14.01,2013-04-11 15:39:00,
2013-04-11 11:40:00,33.4,21.0,30.03,SSE,157,0.0,0.0,60,0.00,,---,0.00,VWS V14.01,2013-04-11 15:40:00,
2013-04-11 11:50:00,33.5,21.1,30.03,North,0,0.0,0.0,60,0.00,,---,0.00,VWS V14.01,2013-04-11 15:50:00,
2013-04-11 12:00:00,33.5,21.1,30.02,North,0,0.0,0.0,60,0.00,,---,0.00,VWS V14.01,2013-04-11 16:00:00,
2013-04-11 12:10:00,34.0,20.8,30.03,North,0,0.0,0.0,58,0.00,,---,0.00,VWS V14.01,2013-04-11 16:10:00,
2013-04-11 12:20:00,34.3,21.1,30.02,North,0,0.0,0.0,58,0.00,,---,0.00,VWS V14.01,2013-04-11 16:20:00,
2013-04-11 12:30:00,34.0,20.8,30.02,North,0,0.0,0.0,58,0.00,,---,0.00,VWS V14.01,2013-04-11 16:30:00,
2013-04-11 12:40:00,34.0,21.6,30.02,North,0,0.0,0.0,60,0.00,,---,0.00,VWS V14.01,2013-04-11 16:40:00,
2013-04-11 12:50:00,34.0,22.4,30.02,North,0,0.0,0.0,62,0.00,,---,0.00,VWS V14.01,2013-04-11 16:50:00,
2013-04-11 13:00:00,34.3,21.9,30.01,North,0,0.0,0.0,60,0.00,,---,0.00,VWS V14.01,2013-04-11 17:00:00,
2013-04-11 13:10:00,34.1,20.1,30.01,North,0,0.0,0.0,56,0.00,,---,0.00,VWS V14.01,2013-04-11 17:10:00,
2013-04-11 13:20:00,33.8,18.5,30.00,North,0,0.0,0.0,53,0.00,,---,0.00,VWS V14.01,2013-04-11 17:20:00,
2013-04-11 13:30:00,34.3,19.8,30.00,North,0,0.0,0.0,55,0.00,,---,0.00,VWS V14.01,2013-04-11 17:30:00,
2013-04-11 13:40:00,34.3,19.4,30.00,North,0,0.0,0.0,54,0.00,,---,0.00,VWS V14.01,2013-04-11 17:40:00,
2013-04-11 13:50:00,34.6,19.7,30.00,North,0,0.0,0.0,54,0.00,,---,0.00,VWS V14.01,2013-04-11 17:50:00,
2013-04-11 14:00:00,34.4,19.0,29.99,North,0,0.0,0.0,53,0.00,,---,0.00,VWS V14.01,2013-04-11 18:00:00,
2013-04-11 14:10:00,34.3,19.0,29.99,North,0,0.0,0.0,53,0.00,,---,0.00,VWS V14.01,2013-04-11 18:10:00,
2013-04-11 14:20:00,34.1,19.2,29.98,North,0,0.0,0.0,54,0.00,,---,0.00,VWS V14.01,2013-04-11 18:20:00,
2013-04-11 14:30:00,34.0,18.2,29.98,North,0,0.0,0.0,52,0.00,,---,0.00,VWS V14.01,2013-04-11 18:30:00,
2013-04-11 14:40:00,34.0,18.7,29.98,North,0,0.0,0.0,53,0.00,,---,0.00,VWS V14.01,2013-04-11 18:40:00,
2013-04-11 14:50:00,34.0,20.8,29.98,North,0,0.0,0.0,58,0.00,,---,0.00,VWS V14.01,2013-04-11 18:50:00,
2013-04-11 15:00:00,33.5,19.5,29.98,North,0,0.0,0.0,56,0.00,,---,0.00,VWS V14.01,2013-04-11 19:00:00,
2013-04-11 15:10:00,33.5,19.5,29.97,North,0,0.0,0.0,56,0.00,,---,0.00,VWS V14.01,2013-04-11 19:10:00,
2013-04-11 15:20:00,33.5,20.7,29.97,North,0,0.0,0.0,59,0.00,,---,0.00,VWS V14.01,2013-04-11 19:20:00,
2013-04-11 15:30:00,33.2,20.0,29.97,North,0,0.0,0.0,58,0.00,,---,0.00,VWS V14.01,2013-04-11 19:30:00,
2013-04-11 15:40:00,33.1,20.7,29.96,North,0,0.0,0.0,60,0.00,,---,0.00,VWS V14.01,2013-04-11 19:40:00,
2013-04-11 15:50:00,32.7,20.8,29.97,North,0,0.0,0.0,61,0.00,,---,0.00,VWS V14.01,2013-04-11 19:50:00,
2013-04-11 16:00:00,32.4,21.6,29.97,North,0,0.0,0.0,64,0.00,,---,0.00,VWS V14.01,2013-04-11 20:00:00,
2013-04-11 16:10:00,31.9,21.9,29.96,North,0,0.0,0.0,66,0.01,,---,0.01,VWS V14.01,2013-04-11 20:10:00,
2013-04-11 16:23:00,31.8,19.5,29.97,ESE,111,0.0,0.0,60,0.01,,---,0.01,VWS V14.01,2013-04-11 20:23:00,
2013-04-11 16:28:00,31.9,20.0,29.96,NE,43,0.0,0.0,61,0.01,,---,0.01,VWS V14.01,2013-04-11 20:28:00,
2013-04-11 16:33:00,31.9,19.6,29.95,East,100,0.0,0.0,60,0.01,,---,0.01,VWS V14.01,2013-04-11 20:33:00,
2013-04-11 16:38:00,31.9,20.4,29.95,ESE,118,0.0,0.0,62,0.01,,---,0.01,VWS V14.01,2013-04-11 20:38:00,
2013-04-11 16:43:00,31.9,20.4,29.95,East,88,0.0,0.0,62,0.01,,---,0.01,VWS V14.01,2013-04-11 20:43:00,
2013-04-11 16:48:00,31.9,20.4,29.95,East,84,0.0,0.0,62,0.01,,---,0.01,VWS V14.01,2013-04-11 20:48:00,
2013-04-11 16:53:00,31.9,20.4,29.96,South,188,0.0,0.0,62,0.01,,---,0.01,VWS V14.01,2013-04-11 20:53:00,
2013-04-11 16:58:00,32.1,19.8,29.97,ESE,109,0.0,0.0,60,0.01,,---,0.01,VWS V14.01,2013-04-11 20:58:00,
2013-04-11 17:03:00,32.2,20.3,29.97,East,101,0.0,0.0,61,0.01,,---,0.01,VWS V14.01,2013-04-11 21:03:00,
2013-04-11 17:08:00,32.2,20.7,29.98,East,80,0.0,0.0,62,0.01,,---,0.01,VWS V14.01,2013-04-11 21:08:00,
2013-04-11 17:13:00,32.2,19.5,29.98,SE,126,0.0,0.0,59,0.00,,---,0.01,VWS V14.01,2013-04-11 21:13:00,
2013-04-11 17:18:00,32.2,19.5,29.97,SSW,195,0.0,0.0,59,0.00,,---,0.01,VWS V14.01,2013-04-11 21:18:00,
2013-04-11 17:24:00,32.1,19.0,29.97,SSE,159,0.0,0.0,58,0.00,,---,0.01,VWS V14.01,2013-04-11 21:24:00,
2013-04-11 17:29:00,31.9,21.1,29.97,ESE,116,0.0,0.0,64,0.00,,---,0.01,VWS V14.01,2013-04-11 21:29:00,
2013-04-11 17:34:00,31.8,21.4,29.96,East,84,0.0,0.0,65,0.00,,---,0.01,VWS V14.01,2013-04-11 21:34:00,
2013-04-11 17:39:00,31.3,21.6,29.95,East,87,0.0,0.0,67,0.00,,---,0.01,VWS V14.01,2013-04-11 21:39:00,
2013-04-11 17:44:00,31.2,23.2,29.95,East,85,0.0,0.0,72,0.00,,---,0.01,VWS V14.01,2013-04-11 21:44:00,
2013-04-11 17:49:00,31.0,23.7,29.95,SE,145,0.0,0.0,74,0.00,,---,0.01,VWS V14.01,2013-04-11 21:49:00,
2013-04-11 17:54:00,30.7,23.4,29.95,East,84,0.0,0.0,74,0.00,,---,0.01,VWS V14.01,2013-04-11 21:54:00,
2013-04-11 17:59:00,30.6,24.0,29.94,SE,138,0.0,0.0,76,0.00,,---,0.01,VWS V14.01,2013-04-11 21:59:00,
2013-04-11 18:04:00,30.4,24.1,29.95,ESE,115,0.0,0.0,77,0.00,,---,0.01,VWS V14.01,2013-04-11 22:04:00,
2013-04-11 18:09:00,30.3,24.6,29.94,ESE,103,0.0,0.0,79,0.00,,---,0.01,VWS V14.01,2013-04-11 22:09:00,
2013-04-11 18:14:00,30.1,24.7,29.93,ENE,67,0.0,0.0,80,0.00,,---,0.01,VWS V14.01,2013-04-11 22:14:00,
2013-04-11 18:19:00,30.0,24.9,29.94,South,180,0.0,0.0,81,0.00,,---,0.01,VWS V14.01,2013-04-11 22:19:00,
2013-04-11 18:24:00,30.0,25.2,29.94,ENE,61,0.0,0.0,82,0.00,,---,0.01,VWS V14.01,2013-04-11 22:24:00,
2013-04-11 18:29:00,30.0,25.5,29.93,East,98,0.0,0.0,83,0.00,,---,0.01,VWS V14.01,2013-04-11 22:29:00,
2013-04-11 18:34:00,30.0,25.5,29.93,ENE,76,0.0,0.0,83,0.00,,---,0.01,VWS V14.01,2013-04-11 22:34:00,
2013-04-11 18:39:00,29.8,24.7,29.94,ENE,65,0.0,0.0,81,0.00,,---,0.01,VWS V14.01,2013-04-11 22:39:00,
2013-04-11 18:44:00,29.8,24.7,29.94,ESE,109,0.0,0.0,81,0.00,,---,0.01,VWS V14.01,2013-04-11 22:44:00,
2013-04-11 18:49:00,29.8,24.7,29.94,SSE,159,0.0,0.0,81,0.00,,---,0.01,VWS V14.01,2013-04-11 22:49:00,
2013-04-11 18:54:00,29.8,24.4,29.94,ESE,105,0.0,0.0,80,0.00,,---,0.01,VWS V14.01,2013-04-11 22:54:00,
2013-04-11 18:59:00,29.8,24.4,29.94,SE,130,0.0,0.0,80,0.00,,---,0.01,VWS V14.01,2013-04-11 22:59:00,
2013-04-11 19:04:00,29.8,24.7,29.93,SE,128,0.0,0.0,81,0.00,,---,0.01,VWS V14.01,2013-04-11 23:04:00,
2013-04-11 19:09:00,29.7,24.3,29.93,ENE,66,0.0,0.0,80,0.00,,---,0.01,VWS V14.01,2013-04-11 23:09:00,
2013-04-11 19:14:00,29.7,24.6,29.93,SE,144,0.0,0.0,81,0.00,,---,0.01,VWS V14.01,2013-04-11 23:14:00,
2013-04-11 19:19:00,29.7,24.6,29.92,SE,127,0.0,0.0,81,0.00,,---,0.01,VWS V14.01,2013-04-11 23:19:00,
2013-04-11 19:24:00,29.7,24.6,29.93,East,80,0.0,0.0,81,0.00,,---,0.01,VWS V14.01,2013-04-11 23:24:00,
2013-04-11 19:29:00,29.7,24.9,29.93,ESE,122,0.0,0.0,82,0.00,,---,0.01,VWS V14.01,2013-04-11 23:29:00,
2013-04-11 19:34:00,29.7,25.2,29.93,ESE,117,0.0,0.0,83,0.00,,---,0.01,VWS V14.01,2013-04-11 23:34:00,
2013-04-11 19:39:00,29.5,25.0,29.92,SE,131,0.0,0.0,83,0.00,,---,0.01,VWS V14.01,2013-04-11 23:39:00,
2013-04-11 19:44:00,29.5,25.0,29.92,ENE,74,0.0,0.0,83,0.00,,---,0.01,VWS V14.01,2013-04-11 23:44:00,
2013-04-11 19:49:00,29.4,25.2,29.91,East,89,0.0,0.0,84,0.00,,---,0.01,VWS V14.01,2013-04-11 23:49:00,
2013-04-11 19:54:00,29.4,25.5,29.91,East,90,0.0,0.0,85,0.00,,---,0.01,VWS V14.01,2013-04-11 23:54:00,
2013-04-11 19:59:00,29.3,25.4,29.90,ESE,123,0.0,0.0,85,0.00,,---,0.01,VWS V14.01,2013-04-11 23:59:00,
2013-04-11 20:04:00,29.3,25.6,29.90,ESE,107,0.0,0.0,86,0.00,,---,0.01,VWS V14.01,2013-04-12 00:04:00,
2013-04-11 20:09:00,29.3,25.6,29.89,South,179,0.0,0.0,86,0.00,,---,0.01,VWS V14.01,2013-04-12 00:09:00,
2013-04-11 20:14:00,29.3,25.6,29.89,East,94,0.0,0.0,86,0.00,,---,0.01,VWS V14.01,2013-04-12 00:14:00,
2013-04-11 20:19:00,29.3,25.6,29.89,ENE,57,0.0,0.0,86,0.00,,---,0.01,VWS V14.01,2013-04-12 00:19:00,
2013-04-11 20:24:00,29.3,25.6,29.89,SSE,157,0.0,0.0,86,0.00,,---,0.01,VWS V14.01,2013-04-12 00:24:00,
2013-04-11 20:29:00,29.4,26.0,29.89,South,185,0.0,0.0,87,0.00,,---,0.01,VWS V14.01,2013-04-12 00:29:00,
2013-04-11 20:34:00,29.4,26.0,29.89,East,94,0.0,0.0,87,0.00,,---,0.01,VWS V14.01,2013-04-12 00:34:00,
2013-04-11 20:39:00,29.4,26.0,29.90,South,184,0.0,0.0,87,0.00,,---,0.01,VWS V14.01,2013-04-12 00:39:00,
2013-04-11 20:44:00,29.4,26.0,29.90,ESE,114,0.0,0.0,87,0.00,,---,0.01,VWS V14.01,2013-04-12 00:44:00,
2013-04-11 20:49:00,29.4,26.0,29.88,ESE,120,0.0,0.0,87,0.00,,---,0.01,VWS V14.01,2013-04-12 00:49:00,
2013-04-11 20:54:00,29.4,26.3,29.87,ESE,105,0.0,0.0,88,0.00,,---,0.01,VWS V14.01,2013-04-12 00:54:00,
2013-04-11 20:59:00,29.4,26.3,29.87,East,86,0.0,0.0,88,0.00,,---,0.01,VWS V14.01,2013-04-12 00:59:00,
2013-04-11 21:04:00,29.4,26.3,29.86,ENE,71,0.0,0.0,88,0.00,,---,0.01,VWS V14.01,2013-04-12 01:04:00,
2013-04-11 21:09:00,29.4,26.3,29.86,ESE,117,0.0,0.0,88,0.00,,---,0.01,VWS V14.01,2013-04-12 01:09:00,
2013-04-11 21:15:00,29.5,26.4,29.88,ENE,78,0.0,0.0,88,0.00,,---,0.01,VWS V14.01,2013-04-12 01:15:00,
2013-04-11 21:20:00,29.5,26.1,29.86,ESE,111,0.0,0.0,87,0.00,,---,0.01,VWS V14.01,2013-04-12 01:20:00,
2013-04-11 21:25:00,29.5,26.1,29.87,South,191,0.0,0.0,87,0.00,,---,0.01,VWS V14.01,2013-04-12 01:25:00,
2013-04-11 21:30:00,29.5,26.1,29.88,SSW,211,0.0,0.0,87,0.00,,---,0.01,VWS V14.01,2013-04-12 01:30:00,
2013-04-11 21:35:00,29.7,26.3,29.88,East,94,0.0,0.0,87,0.00,,---,0.01,VWS V14.01,2013-04-12 01:35:00,
2013-04-11 21:40:00,29.7,26.3,29.87,East,83,0.0,0.0,87,0.00,,---,0.01,VWS V14.01,2013-04-12 01:40:00,
2013-04-11 21:45:00,29.7,26.3,29.85,East,94,0.0,0.0,87,0.00,,---,0.01,VWS V14.01,2013-04-12 01:45:00,
2013-04-11 21:50:00,29.7,26.3,29.85,SE,125,0.0,0.0,87,0.00,,---,0.01,VWS V14.01,2013-04-12 01:50:00,
2013-04-11 21:55:00,29.7,26.3,29.87,SSE,158,0.0,0.0,87,0.00,,---,0.01,VWS V14.01,2013-04-12 01:55:00,
2013-04-11 22:00:00,29.7,26.3,29.86,ESE,121,0.0,0.0,87,0.00,,---,0.01,VWS V14.01,2013-04-12 02:00:00,
2013-04-11 22:05:00,29.7,26.3,29.86,ESE,121,0.0,0.0,87,0.00,,---,0.01,VWS V14.01,2013-04-12 02:05:00,
2013-04-11 22:10:00,29.5,26.4,29.87,ENE,61,0.0,0.0,88,0.00,,---,0.01,VWS V14.01,2013-04-12 02:10:00,
2013-04-11 22:15:00,29.5,26.4,29.87,ESE,110,0.0,0.0,88,0.00,,---,0.01,VWS V14.01,2013-04-12 02:15:00,
2013-04-11 22:20:00,29.5,26.4,29.88,SSW,192,0.0,0.0,88,0.00,,---,0.01,VWS V14.01,2013-04-12 02:20:00,
2013-04-11 22:25:00,29.5,26.4,29.87,SE,146,0.0,0.0,88,0.00,,---,0.01,VWS V14.01,2013-04-12 02:25:00,
2013-04-11 22:30:00,29.5,26.4,29.87,SSW,192,0.0,0.0,88,0.00,,---,0.01,VWS V14.01,2013-04-12 02:30:00,
2013-04-11 22:35:00,29.5,26.4,29.87,SE,140,0.0,0.0,88,0.00,,---,0.01,VWS V14.01,2013-04-12 02:35:00,
2013-04-11 22:40:00,29.7,26.6,29.88,SE,136,0.0,0.0,88,0.00,,---,0.01,VWS V14.01,2013-04-12 02:40:00,
2013-04-11 22:45:00,29.7,26.3,29.87,SE,130,0.0,0.0,87,0.00,,---,0.01,VWS V14.01,2013-04-12 02:45:00,
2013-04-11 22:50:00,29.8,26.4,29.88,ESE,110,0.0,0.0,87,0.00,,---,0.01,VWS V14.01,2013-04-12 02:50:00,
2013-04-11 22:55:00,29.7,26.3,29.87,East,90,0.0,0.0,87,0.00,,---,0.01,VWS V14.01,2013-04-12 02:55:00,
2013-04-11 23:00:00,29.7,26.6,29.87,ESE,103,0.0,0.0,88,0.00,,---,0.01,VWS V14.01,2013-04-12 03:00:00,
2013-04-11 23:05:00,29.7,26.6,29.86,ENE,63,0.0,0.0,88,0.00,,---,0.01,VWS V14.01,2013-04-12 03:05:00,
2013-04-11 23:10:00,29.7,26.6,29.86,SSE,166,0.0,0.0,88,0.00,,---,0.01,VWS V14.01,2013-04-12 03:10:00,
2013-04-11 23:15:00,29.7,26.6,29.86,East,90,0.0,0.0,88,0.00,,---,0.01,VWS V14.01,2013-04-12 03:15:00,
2013-04-11 23:20:00,29.5,26.4,29.86,East,80,0.0,0.0,88,0.00,,---,0.01,VWS V14.01,2013-04-12 03:20:00,
2013-04-11 23:25:00,29.5,26.4,29.85,ENE,68,0.0,0.0,88,0.00,,---,0.01,VWS V14.01,2013-04-12 03:25:00,
2013-04-11 23:30:00,29.5,26.7,29.85,East,92,0.0,0.0,89,0.00,,---,0.01,VWS V14.01,2013-04-12 03:30:00,
2013-04-11 23:35:00,29.4,26.6,29.85,SSE,165,0.0,0.0,89,0.00,,---,0.01,VWS V14.01,2013-04-12 03:35:00,
2013-04-11 23:40:00,29.4,26.6,29.84,ENE,76,0.0,0.0,89,0.00,,---,0.01,VWS V14.01,2013-04-12 03:40:00,
2013-04-11 23:45:00,29.4,26.6,29.83,SE,146,0.0,0.0,89,0.00,,---,0.01,VWS V14.01,2013-04-12 03:45:00,
2013-04-11 23:50:00,29.4,26.6,29.83,ESE,104,0.0,0.0,89,0.00,,---,0.01,VWS V14.01,2013-04-12 03:50:00,
2013-04-11 23:55:00,29.4,26.6,29.83,ESE,123,0.0,0.0,89,0.00,,---,0.01,VWS V14.01,2013-04-12 03:55:00,